User: anonymous   Login
Location: Unspecified
(0.0000°N, 0.0000°E)
Time: 13:32:04
(UTC+02:00)
Language:

ARIANE 5 R/B - Orbit

View from above orbital plane
View from above orbital plane
View from above satellite
View from above satellite

Ground track
Ground track

The orbit data is extracted from the following two-line orbital elements,

1 28787U 05028B   15141.59698010 -.00000117  00000-0 -91175-5 0  9996
2 28787 007.2998 330.8472 7158725 345.7699 283.9811 02.26557372 80935
Epoch (UTC): 21 May 2015 14:19:39
Eccentricity: 0.7158725
inclination: 7.2998°
perigee height: 579 km
apogee height: 35639 km
right ascension of ascending node: 330.8472°
argument of perigee: 345.7699°
revolutions per day: 2.26557372
mean anomaly at epoch: 283.9811°
orbit number at epoch: 8093

The dashed part of the orbit path shows where the satellite is in the earth's shadow,  

DLR